Flinterborg — PHPH — position and weather

sailwx.info

Track history (hours):
 
Tides and Currents Weather Stations Pressure Air Temp Water Temp Dewpoint Dewpoint Depression Visibility Wind Speed Wind Dir Waves Ship Positions

Flinterborg

Last reported at 2014-Jul-26 16:33 UTC. Time now 2014-Jul-26 17:12 UTC.
Position N 53°50' E 008°47'.

Length 111 m; draft 5.9 m.

Type: Ship. MMSI: 245433000.

Date/timePositionNaut miles runAvg speedWind from/ knotsBaromVisibWave heightAir tempDewpointWater temp
2014-Jul-26 16:33N 53°50' E 008°47'8 8.3
2014-Jul-26 15:33N 53°57' E 008°38'9 9.2
2014-Jul-26 14:33N 53°59' E 008°23'1010.4
2014-Jul-26 13:33N 53°59' E 008°05'1211.5
2014-Jul-26 12:30N 53°56' E 007°46'5212.7
2014-Jul-26 08:25N 53°43' E 006°20'1113.2
2014-Jul-26 07:33N 53°40' E 006°02'1313.3
2014-Jul-26 06:33N 53°36' E 005°40'1313.4
2014-Jul-26 05:33N 53°32' E 005°19'1413.5
2014-Jul-26 04:33N 53°27' E 004°58'1312.9
2014-Jul-26 03:33N 53°20' E 004°40'1413.6
2014-Jul-26 02:33N 53°09' E 004°28'1312.9
2014-Jul-26 01:33N 52°57' E 004°19'1211.9
2014-Jul-26 00:33N 52°46' E 004°09'1211.5
2014-Jul-25 23:33N 52°37' E 003°58'1211.2
2014-Jul-25 22:28N 52°27' E 003°47'1311.2
2014-Jul-25 21:19N 52°16' E 003°36'2310.5
2014-Jul-25 19:07N 51°55' E 003°22'710.9
2014-Jul-25 18:30N 51°49' E 003°18'1010.0
2014-Jul-25 17:30N 51°39' E 003°21'1212.7
2014-Jul-25 16:33N 51°28' E 003°31'1212.0
2014-Jul-25 15:33N 51°22' E 003°46'1110.9
2014-Jul-25 14:33N 51°25' E 004°03'9 9.5
2014-Jul-25 13:33N 51°21' E 004°17'0 0.0
2014-Jul-25 12:34N 51°21' E 004°17'1 1.4
2014-Jul-25 11:33N 51°20' E 004°18'4 4.1
2014-Jul-25 10:33N 51°16' E 004°22'0 0.0
2014-Jul-25 09:32N 51°16' E 004°22'0 0.0
2014-Jul-25 08:28N 51°16' E 004°22'0 0.0
2014-Jul-25 07:28N 51°16' E 004°22'0 0.0
2014-Jul-25 06:33N 51°16' E 004°22'0 0.0
2014-Jul-25 05:33N 51°16' E 004°22'0 0.0
2014-Jul-25 04:32N 51°16' E 004°22'0 0.0
2014-Jul-25 03:32N 51°16' E 004°22'0 0.1
2014-Jul-25 02:32N 51°16' E 004°22'0 0.0
2014-Jul-25 01:31N 51°16' E 004°22'0 0.0
2014-Jul-25 00:31N 51°16' E 004°22'0 0.0
2014-Jul-24 23:33N 51°16' E 004°22'0 0.0
2014-Jul-24 22:33N 51°16' E 004°22'2 1.9
2014-Jul-24 21:31N 51°15' E 004°24'0 0.0
2014-Jul-24 20:28N 51°15' E 004°24'0 0.0
2014-Jul-24 19:33N 51°15' E 004°24'0 0.0
2014-Jul-24 18:33N 51°15' E 004°24'0 0.0
2014-Jul-24 17:32N 51°15' E 004°24'0 0.0
2014-Jul-24 16:32N 51°15' E 004°24'0 0.0
2014-Jul-24 15:32N 51°15' E 004°24'0 0.0
2014-Jul-24 14:32N 51°15' E 004°24'0 0.1
2014-Jul-24 13:31N 51°15' E 004°24'0 0.0
2014-Jul-24 12:32N 51°15' E 004°24'0 0.1
2014-Jul-24 11:31N 51°15' E 004°24'0 0.0
2014-Jul-24 10:33N 51°15' E 004°24'0 0.0
2014-Jul-24 09:33N 51°15' E 004°24'0 0.0
2014-Jul-24 08:33N 51°15' E 004°24'0 0.0
2014-Jul-24 07:33N 51°15' E 004°24'0 0.0
2014-Jul-24 06:32N 51°15' E 004°24'0 0.0
2014-Jul-24 05:31N 51°15' E 004°24'0 0.0
2014-Jul-24 04:31N 51°15' E 004°24'0 0.0
2014-Jul-24 03:33N 51°15' E 004°24'0 0.0
2014-Jul-24 02:33N 51°15' E 004°24'0 0.0
2014-Jul-24 01:30N 51°15' E 004°24'0 0.0
2014-Jul-24 00:32N 51°15' E 004°24'0 0.0
2014-Jul-23 23:32N 51°15' E 004°24'0 0.0
2014-Jul-23 22:31N 51°15' E 004°24'0 0.0
2014-Jul-23 21:31N 51°15' E 004°24'0 0.0
2014-Jul-23 20:33N 51°15' E 004°24'0 0.0
2014-Jul-23 19:33N 51°15' E 004°24'0 0.0
2014-Jul-23 18:33N 51°15' E 004°24'0 0.5
2014-Jul-23 17:32N 51°15' E 004°24'0 0.0
2014-Jul-23 16:32N 51°15' E 004°24'0 0.0
2014-Jul-23 15:31N 51°15' E 004°24'0 0.0
2014-Jul-23 14:31N 51°15' E 004°24'0 0.0
2014-Jul-23 13:33N 51°15' E 004°24'0 0.0
2014-Jul-23 12:33N 51°15' E 004°24'0 0.0
2014-Jul-23 11:32N 51°15' E 004°24'0 0.0
2014-Jul-23 10:29N 51°15' E 004°24'0 0.0
2014-Jul-23 09:32N 51°15' E 004°24'0 0.0
2014-Jul-23 08:31N 51°15' E 004°24'0 0.0
2014-Jul-23 07:31N 51°15' E 004°24'0 0.0
2014-Jul-23 06:33N 51°15' E 004°24'0 0.0
2014-Jul-23 05:33N 51°15' E 004°24'0 0.0
2014-Jul-23 04:32N 51°15' E 004°24'0 0.0
2014-Jul-23 03:32N 51°15' E 004°24'0 0.0
2014-Jul-23 02:32N 51°15' E 004°24'0 0.0
2014-Jul-23 01:31N 51°15' E 004°24'0 0.0
2014-Jul-23 00:31N 51°15' E 004°24'0 0.0
2014-Jul-22 23:33N 51°15' E 004°24'0 0.0
2014-Jul-22 22:33N 51°15' E 004°24'0 0.1
2014-Jul-22 21:29N 51°15' E 004°24'0 0.0
2014-Jul-22 20:32N 51°15' E 004°24'0 0.1
2014-Jul-22 19:34N 51°15' E 004°24'0 0.3
2014-Jul-22 18:33N 51°15' E 004°24'3 2.7
2014-Jul-22 17:34N 51°17' E 004°20'0 0.3
2014-Jul-22 16:33N 51°17' E 004°20'2 2.2
2014-Jul-22 15:33N 51°16' E 004°17'0 0.3
2014-Jul-22 14:33N 51°16' E 004°16'1 0.7
2014-Jul-22 13:07N 51°16' E 004°14'0 0.0
2014-Jul-22 12:28N 51°16' E 004°14'0 0.0
2014-Jul-22 11:33N 51°16' E 004°14'0 0.0
2014-Jul-22 10:24N 51°16' E 004°14'0 0.0
2014-Jul-22 09:27N 51°16' E 004°14'0 0.0
2014-Jul-22 08:14N 51°16' E 004°14'0 0.0
2014-Jul-22 07:32N 51°16' E 004°14'0 0.0
2014-Jul-22 06:31N 51°16' E 004°14'0 0.0
2014-Jul-22 05:28N 51°16' E 004°14'0 0.0
2014-Jul-22 04:33N 51°16' E 004°14'0 0.0
2014-Jul-22 03:24N 51°16' E 004°14'0 0.0
2014-Jul-22 02:30N 51°16' E 004°14'0 0.0
2014-Jul-22 01:14N 51°16' E 004°14'0 0.0
2014-Jul-22 00:32N 51°16' E 004°14'0 0.0
2014-Jul-21 23:31N 51°16' E 004°14'0 0.0
2014-Jul-21 22:33N 51°16' E 004°14'0 0.0
2014-Jul-21 21:33N 51°16' E 004°14'0 0.0
2014-Jul-21 20:24N 51°16' E 004°14'0 0.0
2014-Jul-21 20:15N 51°16' E 004°14'0 0.0
2014-Jul-21 19:26N 51°16' E 004°14'0 0.0
2014-Jul-21 18:32N 51°16' E 004°14'0 0.0
2014-Jul-21 17:32N 51°16' E 004°14'0 0.0
2014-Jul-21 16:19N 51°16' E 004°14'0 0.0
2014-Jul-21 15:19N 51°16' E 004°14'0 0.0
2014-Jul-21 14:33N 51°16' E 004°14'0 0.0
2014-Jul-21 13:30N 51°16' E 004°14'0 0.0
2014-Jul-21 12:20N 51°16' E 004°14'0 0.0
2014-Jul-21 11:29N 51°16' E 004°14'0 0.0
2014-Jul-21 10:20N 51°16' E 004°14'0 0.0
2014-Jul-21 09:31N 51°16' E 004°14'0 0.0
2014-Jul-21 08:26N 51°16' E 004°14'0 0.5
2014-Jul-21 07:33N 51°16' E 004°15'3 2.6
2014-Jul-21 06:34N 51°17' E 004°19'9 8.7
2014-Jul-21 05:33N 51°22' E 004°08'8 8.4
2014-Jul-21 04:34N 51°22' E 003°55'1111.2
2014-Jul-21 03:33N 51°25' E 003°38'1111.4
2014-Jul-21 02:33N 51°33' E 003°25'1212.1
2014-Jul-21 01:34N 51°44' E 003°15'10 9.9
2014-Jul-21 00:33N 51°53' E 003°18'1110.3
2014-Jul-20 23:29N 52°04' E 003°21'1210.2
2014-Jul-20 22:16N 52°16' E 003°26'8 9.9
2014-Jul-20 21:28N 52°24' E 003°30'20 9.8
2014-Jul-20 19:27N 52°42' E 003°41'5310.7
2014-Jul-20 14:31N 53°24' E 004°35'8 8.7
2014-Jul-20 13:33N 53°29' E 004°46'9 8.5
2014-Jul-20 12:33N 53°32' E 004°59'9 8.8
2014-Jul-20 11:33N 53°35' E 005°13'9 9.1
2014-Jul-20 10:33N 53°38' E 005°28'1010.1
2014-Jul-20 09:33N 53°41' E 005°44'1111.2
2014-Jul-20 08:33N 53°45' E 006°02'1211.4
2014-Jul-20 07:29N 53°49' E 006°21'2511.1
2014-Jul-20 05:13N 53°55' E 007°03'1210.2
2014-Jul-20 04:04N 53°58' E 007°22'5 9.8
2014-Jul-20 03:33N 53°59' E 007°30'9 9.4
2014-Jul-20 02:33N 54°01' E 007°46'10 9.5
2014-Jul-20 01:33N 54°01' E 008°02'10 9.9
2014-Jul-20 00:33N 54°00' E 008°19'1313.0
2014-Jul-19 23:34N 53°56' E 008°40'1313.1
2014-Jul-19 22:33N 53°51' E 009°01'5 5.3
2014-Jul-19 21:33N 53°54' E 009°09'5 4.8
2014-Jul-19 20:32N 53°57' E 009°14'7 6.0
2014-Jul-19 19:26N 54°03' E 009°18'6 6.2
2014-Jul-19 18:31N 54°09' E 009°21'9 8.6
2014-Jul-19 17:29N 54°13' E 009°35'21 7.0
2014-Jul-19 14:30N 54°22' E 010°07'2 1.7
2014-Jul-19 13:33N 54°22' E 010°10'5 4.3
2014-Jul-19 12:25N 54°26' E 010°13'910.8
2014-Jul-19 11:33N 54°32' E 010°26'1212.0
2014-Jul-19 10:33N 54°35' E 010°46'1212.4
2014-Jul-19 09:34N 54°36' E 011°07'1312.7
2014-Jul-19 08:33N 54°32' E 011°28'1212.3
2014-Jul-19 07:33N 54°28' E 011°48'1212.2
2014-Jul-19 06:33N 54°28' E 012°09'1111.4
2014-Jul-19 05:33N 54°35' E 012°24'1212.1
2014-Jul-19 04:34N 54°40' E 012°43'1212.2
2014-Jul-19 03:34N 54°46' E 013°02'1212.1
2014-Jul-19 02:34N 54°52' E 013°20'1211.9
2014-Jul-19 01:33N 54°58' E 013°38'1212.2
2014-Jul-19 00:33N 55°04' E 013°57'1212.1
2014-Jul-18 23:33N 55°12' E 014°13'1212.1
2014-Jul-18 22:33N 55°21' E 014°28'1211.9
2014-Jul-18 21:33N 55°28' E 014°44'1211.8
2014-Jul-18 20:33N 55°35' E 015°01'1212.1
2014-Jul-18 19:34N 55°41' E 015°20'1212.1
2014-Jul-18 18:33N 55°47' E 015°38'1212.0
2014-Jul-18 17:33N 55°54' E 015°56'1212.2
2014-Jul-18 16:34N 55°60' E 016°15'1212.1
2014-Jul-18 15:34N 56°06' E 016°33'4212.3
2014-Jul-18 12:07N 56°44' E 017°09'712.5
2014-Jul-18 11:33N 56°50' E 017°14'1312.4
2014-Jul-18 10:32N 57°02' E 017°23'1212.3
2014-Jul-18 09:33N 57°13' E 017°31'1212.2
2014-Jul-18 08:33N 57°24' E 017°40'1212.2
2014-Jul-18 07:34N 57°35' E 017°50'1212.3
2014-Jul-18 06:34N 57°46' E 018°01'  
Track history (hours):
 
Tides and Currents Weather Stations Pressure Air Temp Water Temp Dewpoint Dewpoint Depression Visibility Wind Speed Wind Dir Waves Ship Positions

Flinterborg

Last reported at 2014-Jul-26 16:33 UTC. Time now 2014-Jul-26 17:12 UTC.
Position N 53°50' E 008°47'.

Length 111 m; draft 5.9 m.

Type: Ship. MMSI: 245433000.

Date/timePositionNaut miles runAvg speedWind from/ knotsBaromVisibWave heightAir tempDewpointWater temp
2014-Jul-26 16:33N 53°50' E 008°47'8 8.3
2014-Jul-26 15:33N 53°57' E 008°38'9 9.2
2014-Jul-26 14:33N 53°59' E 008°23'1010.4
2014-Jul-26 13:33N 53°59' E 008°05'1211.5
2014-Jul-26 12:30N 53°56' E 007°46'5212.7
2014-Jul-26 08:25N 53°43' E 006°20'1113.2
2014-Jul-26 07:33N 53°40' E 006°02'1313.3
2014-Jul-26 06:33N 53°36' E 005°40'1313.4
2014-Jul-26 05:33N 53°32' E 005°19'1413.5
2014-Jul-26 04:33N 53°27' E 004°58'1312.9
2014-Jul-26 03:33N 53°20' E 004°40'1413.6
2014-Jul-26 02:33N 53°09' E 004°28'1312.9
2014-Jul-26 01:33N 52°57' E 004°19'1211.9
2014-Jul-26 00:33N 52°46' E 004°09'1211.5
2014-Jul-25 23:33N 52°37' E 003°58'1211.2
2014-Jul-25 22:28N 52°27' E 003°47'1311.2
2014-Jul-25 21:19N 52°16' E 003°36'2310.5
2014-Jul-25 19:07N 51°55' E 003°22'710.9
2014-Jul-25 18:30N 51°49' E 003°18'1010.0
2014-Jul-25 17:30N 51°39' E 003°21'1212.7
2014-Jul-25 16:33N 51°28' E 003°31'1212.0
2014-Jul-25 15:33N 51°22' E 003°46'1110.9
2014-Jul-25 14:33N 51°25' E 004°03'9 9.5
2014-Jul-25 13:33N 51°21' E 004°17'0 0.0
2014-Jul-25 12:34N 51°21' E 004°17'1 1.4
2014-Jul-25 11:33N 51°20' E 004°18'4 4.1
2014-Jul-25 10:33N 51°16' E 004°22'0 0.0
2014-Jul-25 09:32N 51°16' E 004°22'0 0.0
2014-Jul-25 08:28N 51°16' E 004°22'0 0.0
2014-Jul-25 07:28N 51°16' E 004°22'0 0.0
2014-Jul-25 06:33N 51°16' E 004°22'0 0.0
2014-Jul-25 05:33N 51°16' E 004°22'0 0.0
2014-Jul-25 04:32N 51°16' E 004°22'0 0.0
2014-Jul-25 03:32N 51°16' E 004°22'0 0.1
2014-Jul-25 02:32N 51°16' E 004°22'0 0.0
2014-Jul-25 01:31N 51°16' E 004°22'0 0.0
2014-Jul-25 00:31N 51°16' E 004°22'0 0.0
2014-Jul-24 23:33N 51°16' E 004°22'0 0.0
2014-Jul-24 22:33N 51°16' E 004°22'2 1.9
2014-Jul-24 21:31N 51°15' E 004°24'0 0.0
2014-Jul-24 20:28N 51°15' E 004°24'0 0.0
2014-Jul-24 19:33N 51°15' E 004°24'0 0.0
2014-Jul-24 18:33N 51°15' E 004°24'0 0.0
2014-Jul-24 17:32N 51°15' E 004°24'0 0.0
2014-Jul-24 16:32N 51°15' E 004°24'0 0.0
2014-Jul-24 15:32N 51°15' E 004°24'0 0.0
2014-Jul-24 14:32N 51°15' E 004°24'0 0.1
2014-Jul-24 13:31N 51°15' E 004°24'0 0.0
2014-Jul-24 12:32N 51°15' E 004°24'0 0.1
2014-Jul-24 11:31N 51°15' E 004°24'0 0.0
2014-Jul-24 10:33N 51°15' E 004°24'0 0.0
2014-Jul-24 09:33N 51°15' E 004°24'0 0.0
2014-Jul-24 08:33N 51°15' E 004°24'0 0.0
2014-Jul-24 07:33N 51°15' E 004°24'0 0.0
2014-Jul-24 06:32N 51°15' E 004°24'0 0.0
2014-Jul-24 05:31N 51°15' E 004°24'0 0.0
2014-Jul-24 04:31N 51°15' E 004°24'0 0.0
2014-Jul-24 03:33N 51°15' E 004°24'0 0.0
2014-Jul-24 02:33N 51°15' E 004°24'0 0.0
2014-Jul-24 01:30N 51°15' E 004°24'0 0.0
2014-Jul-24 00:32N 51°15' E 004°24'0 0.0
2014-Jul-23 23:32N 51°15' E 004°24'0 0.0
2014-Jul-23 22:31N 51°15' E 004°24'0 0.0
2014-Jul-23 21:31N 51°15' E 004°24'0 0.0
2014-Jul-23 20:33N 51°15' E 004°24'0 0.0
2014-Jul-23 19:33N 51°15' E 004°24'0 0.0
2014-Jul-23 18:33N 51°15' E 004°24'0 0.5
2014-Jul-23 17:32N 51°15' E 004°24'0 0.0
2014-Jul-23 16:32N 51°15' E 004°24'0 0.0
2014-Jul-23 15:31N 51°15' E 004°24'0 0.0
2014-Jul-23 14:31N 51°15' E 004°24'0 0.0
2014-Jul-23 13:33N 51°15' E 004°24'0 0.0
2014-Jul-23 12:33N 51°15' E 004°24'0 0.0
2014-Jul-23 11:32N 51°15' E 004°24'0 0.0
2014-Jul-23 10:29N 51°15' E 004°24'0 0.0
2014-Jul-23 09:32N 51°15' E 004°24'0 0.0
2014-Jul-23 08:31N 51°15' E 004°24'0 0.0
2014-Jul-23 07:31N 51°15' E 004°24'0 0.0
2014-Jul-23 06:33N 51°15' E 004°24'0 0.0
2014-Jul-23 05:33N 51°15' E 004°24'0 0.0
2014-Jul-23 04:32N 51°15' E 004°24'0 0.0
2014-Jul-23 03:32N 51°15' E 004°24'0 0.0
2014-Jul-23 02:32N 51°15' E 004°24'0 0.0
2014-Jul-23 01:31N 51°15' E 004°24'0 0.0
2014-Jul-23 00:31N 51°15' E 004°24'0 0.0
2014-Jul-22 23:33N 51°15' E 004°24'0 0.0
2014-Jul-22 22:33N 51°15' E 004°24'0 0.1
2014-Jul-22 21:29N 51°15' E 004°24'0 0.0
2014-Jul-22 20:32N 51°15' E 004°24'0 0.1
2014-Jul-22 19:34N 51°15' E 004°24'0 0.3
2014-Jul-22 18:33N 51°15' E 004°24'3 2.7
2014-Jul-22 17:34N 51°17' E 004°20'0 0.3
2014-Jul-22 16:33N 51°17' E 004°20'2 2.2
2014-Jul-22 15:33N 51°16' E 004°17'0 0.3
2014-Jul-22 14:33N 51°16' E 004°16'1 0.7
2014-Jul-22 13:07N 51°16' E 004°14'0 0.0
2014-Jul-22 12:28N 51°16' E 004°14'0 0.0
2014-Jul-22 11:33N 51°16' E 004°14'0 0.0
2014-Jul-22 10:24N 51°16' E 004°14'0 0.0
2014-Jul-22 09:27N 51°16' E 004°14'0 0.0
2014-Jul-22 08:14N 51°16' E 004°14'0 0.0
2014-Jul-22 07:32N 51°16' E 004°14'0 0.0
2014-Jul-22 06:31N 51°16' E 004°14'0 0.0
2014-Jul-22 05:28N 51°16' E 004°14'0 0.0
2014-Jul-22 04:33N 51°16' E 004°14'0 0.0
2014-Jul-22 03:24N 51°16' E 004°14'0 0.0
2014-Jul-22 02:30N 51°16' E 004°14'0 0.0
2014-Jul-22 01:14N 51°16' E 004°14'0 0.0
2014-Jul-22 00:32N 51°16' E 004°14'0 0.0
2014-Jul-21 23:31N 51°16' E 004°14'0 0.0
2014-Jul-21 22:33N 51°16' E 004°14'0 0.0
2014-Jul-21 21:33N 51°16' E 004°14'0 0.0
2014-Jul-21 20:24N 51°16' E 004°14'0 0.0
2014-Jul-21 20:15N 51°16' E 004°14'0 0.0
2014-Jul-21 19:26N 51°16' E 004°14'0 0.0
2014-Jul-21 18:32N 51°16' E 004°14'0 0.0
2014-Jul-21 17:32N 51°16' E 004°14'0 0.0
2014-Jul-21 16:19N 51°16' E 004°14'0 0.0
2014-Jul-21 15:19N 51°16' E 004°14'0 0.0
2014-Jul-21 14:33N 51°16' E 004°14'0 0.0
2014-Jul-21 13:30N 51°16' E 004°14'0 0.0
2014-Jul-21 12:20N 51°16' E 004°14'0 0.0
2014-Jul-21 11:29N 51°16' E 004°14'0 0.0
2014-Jul-21 10:20N 51°16' E 004°14'0 0.0
2014-Jul-21 09:31N 51°16' E 004°14'0 0.0
2014-Jul-21 08:26N 51°16' E 004°14'0 0.5
2014-Jul-21 07:33N 51°16' E 004°15'3 2.6
2014-Jul-21 06:34N 51°17' E 004°19'9 8.7
2014-Jul-21 05:33N 51°22' E 004°08'8 8.4
2014-Jul-21 04:34N 51°22' E 003°55'1111.2
2014-Jul-21 03:33N 51°25' E 003°38'1111.4
2014-Jul-21 02:33N 51°33' E 003°25'1212.1
2014-Jul-21 01:34N 51°44' E 003°15'10 9.9
2014-Jul-21 00:33N 51°53' E 003°18'1110.3
2014-Jul-20 23:29N 52°04' E 003°21'1210.2
2014-Jul-20 22:16N 52°16' E 003°26'8 9.9
2014-Jul-20 21:28N 52°24' E 003°30'20 9.8
2014-Jul-20 19:27N 52°42' E 003°41'5310.7
2014-Jul-20 14:31N 53°24' E 004°35'8 8.7
2014-Jul-20 13:33N 53°29' E 004°46'9 8.5
2014-Jul-20 12:33N 53°32' E 004°59'9 8.8
2014-Jul-20 11:33N 53°35' E 005°13'9 9.1
2014-Jul-20 10:33N 53°38' E 005°28'1010.1
2014-Jul-20 09:33N 53°41' E 005°44'1111.2
2014-Jul-20 08:33N 53°45' E 006°02'1211.4
2014-Jul-20 07:29N 53°49' E 006°21'2511.1
2014-Jul-20 05:13N 53°55' E 007°03'1210.2
2014-Jul-20 04:04N 53°58' E 007°22'5 9.8
2014-Jul-20 03:33N 53°59' E 007°30'9 9.4
2014-Jul-20 02:33N 54°01' E 007°46'10 9.5
2014-Jul-20 01:33N 54°01' E 008°02'10 9.9
2014-Jul-20 00:33N 54°00' E 008°19'1313.0
2014-Jul-19 23:34N 53°56' E 008°40'1313.1
2014-Jul-19 22:33N 53°51' E 009°01'5 5.3
2014-Jul-19 21:33N 53°54' E 009°09'5 4.8
2014-Jul-19 20:32N 53°57' E 009°14'7 6.0
2014-Jul-19 19:26N 54°03' E 009°18'6 6.2
2014-Jul-19 18:31N 54°09' E 009°21'9 8.6
2014-Jul-19 17:29N 54°13' E 009°35'21 7.0
2014-Jul-19 14:30N 54°22' E 010°07'2 1.7
2014-Jul-19 13:33N 54°22' E 010°10'5 4.3
2014-Jul-19 12:25N 54°26' E 010°13'910.8
2014-Jul-19 11:33N 54°32' E 010°26'1212.0
2014-Jul-19 10:33N 54°35' E 010°46'1212.4
2014-Jul-19 09:34N 54°36' E 011°07'1312.7
2014-Jul-19 08:33N 54°32' E 011°28'1212.3
2014-Jul-19 07:33N 54°28' E 011°48'1212.2
2014-Jul-19 06:33N 54°28' E 012°09'1111.4
2014-Jul-19 05:33N 54°35' E 012°24'1212.1
2014-Jul-19 04:34N 54°40' E 012°43'1212.2
2014-Jul-19 03:34N 54°46' E 013°02'1212.1
2014-Jul-19 02:34N 54°52' E 013°20'1211.9
2014-Jul-19 01:33N 54°58' E 013°38'1212.2
2014-Jul-19 00:33N 55°04' E 013°57'1212.1
2014-Jul-18 23:33N 55°12' E 014°13'1212.1
2014-Jul-18 22:33N 55°21' E 014°28'1211.9
2014-Jul-18 21:33N 55°28' E 014°44'1211.8
2014-Jul-18 20:33N 55°35' E 015°01'1212.1
2014-Jul-18 19:34N 55°41' E 015°20'1212.1
2014-Jul-18 18:33N 55°47' E 015°38'1212.0
2014-Jul-18 17:33N 55°54' E 015°56'1212.2
2014-Jul-18 16:34N 55°60' E 016°15'1212.1
2014-Jul-18 15:34N 56°06' E 016°33'4212.3
2014-Jul-18 12:07N 56°44' E 017°09'712.5
2014-Jul-18 11:33N 56°50' E 017°14'1312.4
2014-Jul-18 10:32N 57°02' E 017°23'1212.3
2014-Jul-18 09:33N 57°13' E 017°31'1212.2
2014-Jul-18 08:33N 57°24' E 017°40'1212.2
2014-Jul-18 07:34N 57°35' E 017°50'1212.3
2014-Jul-18 06:34N 57°46' E 018°01'  

Dump ship's entire track history